This demonstration page uses our WeatherBlox Daily Observations layout. Learn more.

Left ArrowRight Arrow

39.12711, -84.51439

Hourly Observations for January 2, 2017

Temp ( °F °C ) Dew Point ( °F °C ) Humidity (%) Winds ( mph kmh ) Pressure ( in mb ) Visibility ( mi km ) Precip ( " mm )
12:08 am 00:08 Cloudy with Mist and Fog 43 6 43 6 100 100 NNE 3 6 30.12 1020 3 5 N/A
12:21 am 00:21 Cloudy with Mist and Fog 43 6.1 43 6.1 100 100 NNE 5 7 30.09 1019 3 4 N/A
12:50 am 00:50 Cloudy with Mist and Fog 43 6 43 6 100 100 N 3 6 30.09 1019 3 5 N/A
12:53 am 00:53 Cloudy with Mist and Fog 43 6.1 43 6.1 100 100 N 5 7 30.11 1020 3 5 N/A
1:53 am 01:53 Cloudy with Mist and Fog 43 6.1 43 6.1 100 100 NE 3 6 30.11 1020 3 5 N/A
2:16 am 02:16 Cloudy with Mist and Fog 43 6 43 6 100 100 NNE 3 6 30.12 1020 3 5 N/A
2:53 am 02:53 Cloudy with Mist and Fog 43 6.1 43 6.1 100 100 NE 3 6 30.11 1020 3 4 N/A
3:38 am 03:38 Cloudy with Mist and Fog 43 6 43 6 100 100 N N/A 30.12 1020 2 2 N/A
3:53 am 03:53 Cloudy with Mist and Fog 43 6.1 43 6.1 100 100 NNE 3 6 30.11 1020 1 2 N/A
4:53 am 04:53 Cloudy with Mist and Fog 43 6.1 43 6.1 100 100 NE 3 6 30.11 1020 1 2 N/A
5:01 am 05:01 Cloudy with Mist and Fog 43 6.1 43 6.1 100 100 N N/A 30.12 1020 1 1 N/A
5:21 am 05:21 Cloudy with Mist and Fog 43 6.1 43 6.1 100 100 N N/A 30.12 1020 1 2 N/A
5:53 am 05:53 Cloudy with Mist and Fog 43 6.1 43 6.1 100 100 N N/A 30.12 1020 1 2 N/A
6:00 am 06:00 Cloudy with Mist and Fog 43 6 43 6 100 100 N N/A 30.12 1020 1 1 N/A
6:24 am 06:24 Mostly Cloudy with Fog 43 6 43 6 100 100 N N/A 30.12 1020 1 1 N/A
6:53 am 06:53 Mostly Cloudy with Fog 43 6.1 43 6.1 100 100 N N/A 30.13 1020 1 1 N/A
7:53 am 07:53 Mostly Cloudy with Fog 44 6.7 44 6.7 100 100 NNE 3 6 30.13 1020 1 1 N/A
8:05 am 08:05 Mostly Cloudy with Fog 44 6.7 44 6.7 100 100 NE 3 6 30.12 1020 1 1 N/A
8:15 am 08:15 Mostly Cloudy with Fog 44 6.7 44 6.7 100 100 N N/A 30.12 1020 0 0 N/A
8:18 am 08:18 Mostly Cloudy with Fog 43 6 43 6 100 100 ENE 3 6 30.12 1020 1 1 N/A
8:53 am 08:53 Cloudy with Mist and Fog 44 6.7 44 6.7 100 100 N N/A 30.13 1020 1 2 N/A
9:23 am 09:23 Cloudy with Mist and Fog 45 7.2 45 7.2 100 100 NNE 3 6 30.12 1020 2 3 N/A
9:30 am 09:30 Cloudy with Mist and Fog 45 7 45 7 100 100 N N/A 30.15 1021 1 2 N/A
9:53 am 09:53 Cloudy with Mist and Fog 45 7.2 45 7.2 100 100 N N/A 30.15 1021 1 2 N/A
10:28 am 10:28 Cloudy with Mist and Fog 46 8 46 8 100 100 N N/A 30.15 1021 1 2 N/A
10:50 am 10:50 Cloudy with Mist and Fog 46 8 46 8 100 100 N N/A 30.15 1021 2 3 N/A
10:53 am 10:53 Cloudy with Mist and Fog 47 8.3 47 8.3 100 100 N N/A 30.16 1022 3 4 N/A
11:53 am 11:53 Cloudy with Mist and Fog 49 9.4 48 8.9 97 97 E 3 6 30.13 1020 2 3 N/A
12:53 pm 12:53 Cloudy with Mist and Fog 51 10.6 50 10 96 96 N N/A 30.10 1019 2 3 N/A
12:55 pm 12:55 Cloudy with Mist and Fog 51 10.6 50 10 96 96 N N/A 30.09 1019 3 5 N/A
1:13 pm 13:13 Cloudy with Mist and Fog 52 11 50 10 94 94 N N/A 30.09 1019 5 8 N/A
1:53 pm 13:53 Cloudy 53 11.7 51 10.6 93 93 NE 5 7 30.05 1018 7 11 N/A
2:12 pm 14:12 Cloudy 54 12 52 11 94 94 NE 6 9 30.03 1017 8 13 N/A
2:24 pm 14:24 Cloudy 55 13 52 11 88 88 NNE 5 7 30.03 1017 8 13 N/A
2:53 pm 14:53 Cloudy 55 12.8 52 11.1 90 90 NE 6 9 30.03 1017 9 14 N/A
3:53 pm 15:53 Cloudy 56 13.3 52 11.1 87 87 N N/A 30.03 1017 10 16 N/A
4:53 pm 16:53 Cloudy 56 13.3 54 12.2 93 93 E 3 6 30.01 1016 9 14 N/A
5:53 pm 17:53 Cloudy 54 12.2 53 11.7 97 97 ENE 6 9 29.99 1016 10 16 N/A
6:36 pm 18:36 Cloudy 54 12 54 12 100 100 N N/A 30.00 1016 10 16 N/A
6:53 pm 18:53 Cloudy 54 12.2 54 12.2 100 100 N N/A 29.98 1015 10 16 N/A
7:53 pm 19:53 Cloudy 54 12.2 53 11.7 97 97 NNE 5 7 29.93 1014 9 14 N/A
8:53 pm 20:53 Cloudy 55 12.8 54 12.2 96 96 NE 3 6 29.91 1013 10 16 N/A
9:53 pm 21:53 Cloudy 54 12.2 53 11.7 97 97 N N/A 29.90 1013 8 13 N/A
10:53 pm 22:53 Mostly Cloudy 53 11.7 53 11.7 100 100 N N/A 29.88 1012 7 11 N/A
11:01 pm 23:01 Mostly Cloudy with Mist and Fog 52 11.1 52 11.1 100 100 N N/A 29.91 1013 2 2 N/A
11:22 pm 23:22 Mostly Clear with Mist and Fog 52 11 52 11 100 100 N N/A 29.91 1013 2 3 N/A
11:35 pm 23:35 Mostly Clear with Fog 50 10 50 10 100 100 N N/A 29.91 1013 1 1 N/A
11:44 pm 23:44 Mostly Cloudy with Fog 50 10 50 10 100 100 N N/A 29.88 1012 0 0 N/A
11:53 pm 23:53 Mostly Cloudy with Fog 51 10.6 51 10.6 100 100 N N/A 29.86 1011 0 0 N/A

Powered by AerisWeather